E24CR-1 Weather Reports


Display with metric or nautical units.
time (UTC)temp
F
wind
direction
speed
MPH
gust
MPH
rain 1hr
in
rain 24hr
in
rain mn
in
humidity
%
barometer
mb
20260509043132 87 0 0.0 0.0 0.00 0.00 0.00 65 954.0
20260509042107 86 0 0.0 0.0 0.00 0.00 0.00 66 954.0
20260509041041 88 0 0.0 0.0 0.00 0.00 0.00 62 954.0
20260509040017 88 0 0.0 0.0 0.00 0.00 0.00 59 954.0
20260509034950 88 0 0.0 0.0 0.00 0.00 0.00 60 955.0
20260509034740 87 0 0.0 0.0 0.00 0.00 0.00 61 955.0
20260509033716 88 0 0.0 0.0 0.00 0.00 0.00 61 955.0
20260509032649 89 0 0.0 0.0 0.00 0.00 0.00 60 955.0
20260509031624 87 0 0.0 0.0 0.00 0.00 0.00 61 955.0
20260509030558 87 0 0.0 0.0 0.00 0.00 0.00 64 955.0
20260509025533 85 0 0.0 0.0 0.00 0.00 0.00 66 955.0
20260509024508 84 0 0.0 0.0 0.00 0.00 0.00 71 955.0
20260509023443 83 0 0.0 0.0 0.00 0.00 0.00 73 956.0
20260509022418 82 0 0.0 0.0 0.00 0.00 0.00 75 956.0
20260509021353 82 0 0.0 0.0 0.00 0.00 0.00 74 956.0
20260509020328 82 0 0.0 0.0 0.00 0.00 0.00 76 956.0
20260509015305 81 0 0.0 0.0 0.00 0.00 0.00 80 956.0
20260509014237 81 0 0.0 0.0 0.00 0.00 0.00 79 956.0
20260509013210 81 0 0.0 0.0 0.00 0.00 0.00 80 956.0
20260509012143 80 0 0.0 0.0 0.00 0.00 0.00 83 955.0
20260509011117 78 0 0.0 0.0 0.00 0.00 0.00 90 955.0
20260509010051 77 0 0.0 0.0 0.00 0.00 0.00 99 955.0
20260509005024 76 0 0.0 0.0 0.00 0.00 0.00 96 955.0
20260509003959 76 0 0.0 0.0 0.00 0.00 0.00 94 955.0
20260509002933 77 0 0.0 0.0 0.00 0.00 0.00 90 955.0
20260509001906 76 0 0.0 0.0 0.00 0.00 0.00 99 955.0
20260509000840 76 0 0.0 0.0 0.00 0.00 0.00 99 955.0
20260508235814 77 0 0.0 0.0 0.00 0.00 0.00 94 954.0
20260508234748 78 0 0.0 0.0 0.00 0.00 0.00 86 954.0
20260508233722 79 0 0.0 0.0 0.00 0.00 0.00 81 954.0
20260508232654 80 0 0.0 0.0 0.00 0.00 0.00 75 954.0
20260508231629 81 0 0.0 0.0 0.00 0.00 0.00 72 954.0
20260508230604 83 0 0.0 0.0 0.00 0.00 0.00 69 954.0
20260508225540 83 0 0.0 0.0 0.00 0.00 0.00 69 953.0
20260508224514 82 0 0.0 0.0 0.00 0.00 0.00 70 953.0
20260508223449 82 0 0.0 0.0 0.00 0.00 0.00 71 953.0
20260508222422 81 0 0.0 0.0 0.00 0.00 0.00 71 953.0
20260508221358 81 0 0.0 0.0 0.00 0.00 0.00 69 953.0
20260508220331 82 0 0.0 0.0 0.00 0.00 0.00 68 953.0
20260508215256 82 0 0.0 0.0 0.00 0.00 0.00 67 953.0
20260508214231 82 0 0.0 0.0 0.00 0.00 0.00 69 953.0
20260508213206 82 0 0.0 0.0 0.00 0.00 0.00 69 953.0
20260508212142 83 0 0.0 0.0 0.00 0.00 0.00 67 953.0
20260508211116 83 0 0.0 0.0 0.00 0.00 0.00 67 953.0
20260508210052 83 0 0.0 0.0 0.00 0.00 0.00 68 953.0
20260508205027 83 0 0.0 0.0 0.00 0.00 0.00 67 953.0
20260508204002 84 0 0.0 0.0 0.00 0.00 0.00 67 953.0
20260508202937 84 0 0.0 0.0 0.00 0.00 0.00 67 953.0
20260508201912 84 0 0.0 0.0 0.00 0.00 0.00 67 953.0
20260508200847 83 0 0.0 0.0 0.00 0.00 0.00 67 953.0
20260508195821 83 0 0.0 0.0 0.00 0.00 0.00 68 953.0
20260508194756 81 0 0.0 0.0 0.00 0.00 0.00 71 952.0
20260508193731 82 0 0.0 0.0 0.00 0.00 0.00 71 953.0
20260508192705 83 0 0.0 0.0 0.00 0.00 0.00 69 953.0
20260508191641 82 0 0.0 0.0 0.00 0.00 0.00 72 953.0
20260508190616 80 0 0.0 0.0 0.00 0.00 0.00 76 953.0
20260508185550 81 0 0.0 0.0 0.00 0.00 0.00 74 953.0
20260508184525 80 0 0.0 0.0 0.00 0.00 0.00 76 953.0
20260508183500 80 0 0.0 0.0 0.00 0.00 0.00 76 953.0
20260508182435 81 0 0.0 0.0 0.00 0.00 0.00 73 953.0
20260508181410 80 0 0.0 0.0 0.00 0.00 0.00 75 953.0
20260508180344 81 0 0.0 0.0 0.00 0.00 0.00 73 953.0
20260508175319 79 0 0.0 0.0 0.00 0.00 0.00 76 953.0
20260508174255 80 0 0.0 0.0 0.00 0.00 0.00 74 953.0
20260508173228 80 0 0.0 0.0 0.00 0.00 0.00 73 953.0
20260508172203 81 0 0.0 0.0 0.00 0.00 0.00 70 953.0
20260508171138 80 0 0.0 0.0 0.00 0.00 0.00 73 954.0
20260508170113 80 0 0.0 0.0 0.00 0.00 0.00 74 954.0
20260508165047 80 0 0.0 0.0 0.00 0.00 0.00 73 954.0
20260508164022 80 0 0.0 0.0 0.00 0.00 0.00 74 954.0
20260508162957 81 0 0.0 0.0 0.00 0.00 0.00 72 954.0
20260508161931 82 0 0.0 0.0 0.00 0.00 0.00 68 954.0
20260508160907 83 0 0.0 0.0 0.00 0.00 0.00 67 954.0
20260508155842 82 0 0.0 0.0 0.00 0.00 0.00 67 954.0
20260508154816 83 0 0.0 0.0 0.00 0.00 0.00 66 954.0
20260508153751 87 0 0.0 0.0 0.00 0.00 0.00 59 953.0
20260508152727 87 0 0.0 0.0 0.00 0.00 0.00 60 953.0
20260508151702 87 0 0.0 0.0 0.00 0.00 0.00 57 953.0
20260508150636 85 0 0.0 0.0 0.00 0.00 0.00 60 953.0
20260508145609 87 0 0.0 0.0 0.00 0.00 0.00 58 953.0
20260508144544 85 0 0.0 0.0 0.00 0.00 0.00 62 953.0
20260508143520 84 0 0.0 0.0 0.00 0.00 0.00 65 952.0
20260508142454 83 0 0.0 0.0 0.00 0.00 0.00 68 952.0
20260508141427 84 0 0.0 0.0 0.00 0.00 0.00 65 952.0
20260508140403 84 0 0.0 0.0 0.00 0.00 0.00 65 952.0
20260508135338 83 0 0.0 0.0 0.00 0.00 0.00 68 951.0
20260508134311 82 0 0.0 0.0 0.00 0.00 0.00 70 951.0
20260508133247 82 0 0.0 0.0 0.00 0.00 0.00 68 951.0
20260508132222 82 0 0.0 0.0 0.00 0.00 0.00 67 951.0
20260508131155 82 0 0.0 0.0 0.00 0.00 0.00 65 951.0
20260508130131 83 0 0.0 0.0 0.00 0.00 0.00 64 951.0
20260508125105 83 0 0.0 0.0 0.00 0.00 0.00 62 950.0
20260508124040 83 0 0.0 0.0 0.00 0.00 0.00 61 950.0
20260508123012 83 0 0.0 0.0 0.00 0.00 0.00 60 950.0
20260508121947 83 0 0.0 0.0 0.00 0.00 0.00 59 950.0
20260508120921 83 0 0.0 0.0 0.00 0.00 0.00 57 950.0
20260508115855 83 0 0.0 0.0 0.00 0.00 0.00 56 950.0
20260508114830 84 0 0.0 0.0 0.00 0.00 0.00 57 950.0
20260508113805 85 0 0.0 0.0 0.00 0.00 0.00 57 950.0
20260508112740 86 0 0.0 0.0 0.00 0.00 0.00 51 950.0
20260508111714 87 0 0.0 0.0 0.00 0.00 0.00 52 949.0
20260508110648 88 0 0.0 0.0 0.00 0.00 0.00 52 949.0
20260508105623 89 0 0.0 0.0 0.00 0.00 0.00 47 949.0
20260508104558 88 0 0.0 0.0 0.00 0.00 0.00 48 949.0
20260508103533 88 0 0.0 0.0 0.00 0.00 0.00 48 949.0
20260508102507 88 0 0.0 0.0 0.00 0.00 0.00 50 949.0
20260508101441 89 0 0.0 0.0 0.00 0.00 0.00 48 949.0
20260508100414 88 0 0.0 0.0 0.00 0.00 0.00 49 949.0
20260508095350 87 0 0.0 0.0 0.00 0.00 0.00 52 949.0
20260508094325 88 0 0.0 0.0 0.00 0.00 0.00 53 948.0
20260508093259 88 0 0.0 0.0 0.00 0.00 0.00 51 948.0
20260508092232 88 0 0.0 0.0 0.00 0.00 0.00 51 948.0
20260508091207 90 0 0.0 0.0 0.00 0.00 0.00 54 948.0
20260508090143 91 0 0.0 0.0 0.00 0.00 0.00 52 948.0
20260508085118 92 0 0.0 0.0 0.00 0.00 0.00 52 949.0
20260508084054 94 0 0.0 0.0 0.00 0.00 0.00 49 949.0
20260508083029 94 0 0.0 0.0 0.00 0.00 0.00 48 949.0
20260508082004 93 0 0.0 0.0 0.00 0.00 0.00 49 949.0
20260508080940 92 0 0.0 0.0 0.00 0.00 0.00 52 949.0
20260508075915 93 0 0.0 0.0 0.00 0.00 0.00 50 949.0
20260508074846 93 0 0.0 0.0 0.00 0.00 0.00 53 950.0
20260508073821 91 0 0.0 0.0 0.00 0.00 0.00 53 950.0
20260508072756 92 0 0.0 0.0 0.00 0.00 0.00 54 950.0
20260508072041 91 0 0.0 0.0 0.00 0.00 0.00 54 950.0
20260508071014 92 0 0.0 0.0 0.00 0.00 0.00 56 950.0
20260508065950 91 0 0.0 0.0 0.00 0.00 0.00 56 951.0
20260508064924 92 0 0.0 0.0 0.00 0.00 0.00 58 951.0
20260508063857 91 0 0.0 0.0 0.00 0.00 0.00 57 951.0
20260508062832 92 0 0.0 0.0 0.00 0.00 0.00 56 951.0
20260508061807 91 0 0.0 0.0 0.00 0.00 0.00 60 952.0
20260508060741 88 0 0.0 0.0 0.00 0.00 0.00 62 952.0
20260508055715 90 0 0.0 0.0 0.00 0.00 0.00 59 952.0
20260508054650 91 0 0.0 0.0 0.00 0.00 0.00 59 952.0
20260508053624 89 0 0.0 0.0 0.00 0.00 0.00 62 952.0
20260508052557 88 0 0.0 0.0 0.00 0.00 0.00 64 953.0
20260508051531 84 0 0.0 0.0 0.00 0.00 0.00 69 953.0
20260508050506 89 0 0.0 0.0 0.00 0.00 0.00 62 953.0
20260508045439 89 0 0.0 0.0 0.00 0.00 0.00 61 953.0
20260508044412 90 0 0.0 0.0 0.00 0.00 0.00 60 954.0